Location: Arboucave
(43.6130°N, 0.4343°W)
Time: 08:36:05
(UTC+00:00)

ISS - Visible Passes

Search period start: 20 January 2026 00:00
Search period end: 30 January 2026 00:00
Orbit: 413 x 424 km, 51.6° (Epoch: 19 January)

Date Brightness Start Highest point End Pass type
(mag) Time Alt. Az. Time Alt. Az. Time Alt. Az.
20 Jan -2.0 18:28:15 10° NW 18:30:50 20° N 18:31:19 19° N visible
21 Jan -2.0 17:40:06 10° WNW 17:42:45 21° N 17:45:24 10° NE visible
21 Jan -1.1 19:17:27 10° NW 19:18:21 15° NNW 19:18:21 15° NNW visible
22 Jan -2.2 18:29:31 10° NW 18:32:13 22° N 18:32:26 22° NNE visible
23 Jan -2.0 17:41:29 10° NW 17:44:05 20° N 17:46:33 11° NE visible
23 Jan -1.4 19:18:17 10° NW 19:19:29 19° NW 19:19:29 19° NW visible
24 Jan -2.7 18:30:23 10° NW 18:33:24 30° NNE 18:33:38 30° NNE visible
25 Jan -2.4 17:42:25 10° NW 17:45:15 25° NNE 17:47:50 11° ENE visible
25 Jan -1.9 19:19:01 10° WNW 19:20:48 29° WNW 19:20:48 29° WNW visible
26 Jan -3.7 18:31:01 10° NW 18:34:20 56° NNE 18:35:05 43° ENE visible
27 Jan -3.1 17:43:02 10° NW 17:46:12 39° NNE 17:49:22 10° E visible
27 Jan -2.1 19:19:52 10° WNW 19:22:28 33° WSW 19:22:28 33° WSW visible
28 Jan -3.3 18:31:40 10° WNW 18:34:58 59° SW 18:37:04 20° SE visible
29 Jan -3.8 17:43:31 10° WNW 17:46:52 84° NNE 17:50:13 10° ESE visible
29 Jan -0.8 19:21:30 10° W 19:23:12 13° SW 19:24:53 10° SSW visible
